Overview Statistics Trail Chart Weather Telemetry Raw packets
 

This is the latest recevied weather packets stored in our database for station/object KC5DAQ-27. If no packets are shown the sender has not sent any weather packets the latest 10 day(s).

<< 53 54 55 56 57 58 59 >>
Time Temp. Humidity Pressure Rain* Wind** Luminosity Snow
1788647072 30.56° C 73% 1002.3 hPa 0 mm - 67 W/m² -
1788647011 31.11° C 74% 1002.2 hPa 0 mm - 76 W/m² -
1788646952 30.56° C 74% 1002.2 hPa 0 mm - 79 W/m² -
1788646891 31.11° C 74% 1002.2 hPa 0 mm - 83 W/m² -
1788646833 31.11° C 73% 1002.2 hPa 0 mm - 83 W/m² -
1788646771 31.11° C 73% 1002.3 hPa 0 mm - 81 W/m² -
1788646712 31.11° C 73% 1002.3 hPa 0 mm - 79 W/m² -
1788646653 31.11° C 73% 1002.3 hPa 0 mm - 77 W/m² -
1788646590 31.11° C 72% 1002.4 hPa 0 mm - 77 W/m² -
1788646530 31.11° C 72% 1002.5 hPa 0 mm - 76 W/m² -
1788646467 31.11° C 73% 1002.5 hPa 0 mm - 76 W/m² -
1788646407 31.67° C 73% 1002.5 hPa 0 mm - 79 W/m² -
1788646345 31.67° C 73% 1002.5 hPa 0 mm - 83 W/m² -
1788646284 31.67° C 73% 1002.5 hPa 0 mm - 88 W/m² -
1788646222 31.67° C 72% 1002.5 hPa 0 mm - 93 W/m² -
1788646160 31.67° C 72% 1002.4 hPa 0 mm - 107 W/m² -
1788646097 31.67° C 72% 1002.5 hPa 0 mm - 113 W/m² -
1788646037 31.67° C 72% 1002.5 hPa 0 mm - 120 W/m² -
1788645976 31.67° C 72% 1002.4 hPa 0 mm - 125 W/m² -
1788645914 31.67° C 71% 1002.5 hPa 0 mm - 132 W/m² -
1788645853 31.67° C 71% 1002.5 hPa 0 mm - 150 W/m² -
1788645792 32.22° C 71% 1002.6 hPa 0 mm - 160 W/m² -
1788645730 32.22° C 71% 1002.4 hPa 0 mm - 171 W/m² -
1788645671 32.22° C 71% 1002.5 hPa 0 mm - 181 W/m² -
1788645609 32.22° C 71% 1002.5 hPa 0 mm - 193 W/m² -

* Rain latest hour (hover to see other rain measurements)
** Current wind speed in m/s (hover to see current wind gust speed)